START_TIME,STEP,MOV.,M15,t_acc.,M20,t_acc.
1979-08-02 23:07:30.730 ,0,0,0.,24.0,0.,24.0
1979-08-02 23:07:54.730 ,0,0,0.,24.0,0.,24.0
1979-08-02 23:08:18.730 ,4,1,0.,24.0,0.,24.0
1979-08-02 23:08:42.730 ,4,0,0.,24.0,0.,24.0
1979-08-02 23:09:06.730 ,3,1,0.,24.0,0.,24.0
1979-08-02 23:09:30.730 ,3,0,0.,24.0,0.,24.0
1979-08-02 23:09:54.730 ,2,1,0.,24.0,0.,24.0
1979-08-02 23:10:18.730 ,2,0,0.,24.0,0.,24.0
1979-08-02 23:10:42.730 ,1,1,0.,24.0,0.,24.0
1979-08-02 23:11:06.730 ,1,0,0.,24.0,0.,24.0
1979-08-02 23:11:30.730 ,0,1,0.,24.0,0.,24.0
1979-08-02 23:11:54.730 ,0,0,0.,24.0,0.,24.0
1979-08-02 23:12:18.730 ,0,1,0.,24.0,0.,24.0
1979-08-02 23:12:42.730 ,0,0,0.,24.0,0.,24.0
1979-08-02 23:13:06.730 ,1,1,0.,24.0,0.,24.0
1979-08-02 23:13:30.730 ,1,0,1.,24.0,0.,24.0
1979-08-02 23:13:54.730 ,2,1,0.,24.0,0.,24.0
1979-08-02 23:14:18.730 ,2,0,0.,24.0,0.,24.0
1979-08-02 23:14:42.730 ,3,1,0.,24.0,0.,24.0
1979-08-02 23:15:06.730 ,3,0,0.,24.0,0.,24.0
1979-08-02 23:15:30.730 ,4,1,0.,24.0,0.,24.0
1979-08-02 23:15:54.730 ,4,0,0.,24.0,0.,24.0
1979-08-02 23:16:18.730 ,5,1,0.,24.0,0.,24.0
1979-08-02 23:16:42.730 ,5,0,0.,24.0,0.,24.0
1979-08-02 23:17:06.730 ,6,1,0.,24.0,0.,24.0
1979-08-02 23:17:30.730 ,6,0,0.,24.0,0.,24.0
1979-08-02 23:17:54.730 ,7,1,0.,24.0,0.,24.0
1979-08-02 23:18:18.730 ,7,0,0.,24.0,0.,24.0
1979-08-02 23:18:42.730 ,7,1,0.,24.0,0.,24.0
1979-08-02 23:19:06.730 ,7,0,0.,24.0,0.,24.0
1979-08-02 23:19:30.730 ,6,1,0.,24.0,0.,24.0
1979-08-02 23:19:54.730 ,6,0,0.,24.0,0.,24.0
1979-08-02 23:20:18.730 ,5,1,0.,24.0,0.,24.0
1979-08-02 23:20:42.730 ,5,0,0.,24.0,0.,24.0
1979-08-02 23:21:06.730 ,4,1,0.,24.0,0.,24.0
1979-08-02 23:21:30.730 ,4,0,0.,24.0,0.,24.0
1979-08-02 23:21:54.730 ,3,1,0.,24.0,0.,24.0
1979-08-02 23:22:18.730 ,3,0,0.,24.0,0.,24.0
1979-08-02 23:22:42.730 ,2,1,0.,24.0,0.,24.0
1979-08-02 23:23:06.730 ,2,0,0.,24.0,0.,24.0
1979-08-02 23:23:30.730 ,1,1,0.,24.0,0.,24.0
1979-08-02 23:23:54.730 ,1,0,0.,24.0,0.,24.0
1979-08-02 23:24:18.730 ,0,1,0.,24.0,0.,24.0
1979-08-02 23:24:42.730 ,0,0,0.,24.0,0.,24.0
1979-08-02 23:25:06.730 ,0,1,0.,24.0,0.,24.0
1979-08-02 23:25:30.730 ,0,0,0.,24.0,0.,24.0
1979-08-02 23:25:54.730 ,1,1,0.,24.0,0.,24.0
1979-08-02 23:26:18.730 ,1,0,0.,24.0,0.,24.0
1979-08-02 23:26:42.730 ,2,1,0.,24.0,0.,24.0
1979-08-02 23:27:06.730 ,2,0,0.,24.0,0.,24.0
1979-08-02 23:27:30.730 ,3,1,0.,24.0,0.,24.0
1979-08-02 23:27:54.730 ,3,0,0.,24.0,0.,24.0
1979-08-02 23:28:18.730 ,4,1,0.,24.0,0.,24.0
1979-08-02 23:28:42.730 ,4,0,0.,24.0,0.,24.0
1979-08-02 23:29:06.730 ,5,1,0.,24.0,0.,24.0
1979-08-02 23:29:30.730 ,5,0,0.,24.0,0.,24.0
1979-08-02 23:29:54.730 ,6,1,0.,24.0,0.,24.0
1979-08-02 23:30:18.730 ,6,0,0.,24.0,0.,24.0
1979-08-02 23:30:42.730 ,7,0,0.,24.0,0.,24.0
1979-08-02 23:31:06.730 ,7,0,0.,24.0,0.,24.0
1979-08-02 23:31:30.730 ,3,1,0.,24.0,0.,24.0
1979-08-02 23:31:54.730 ,0,1,0.,24.0,0.,24.0
1979-08-02 23:32:18.730 ,4,1,0.,24.0,0.,24.0
1979-08-02 23:32:42.730 ,7,1,0.,24.0,0.,24.0
1979-08-02 23:33:06.730 ,3,1,0.,24.0,0.,24.0
1979-08-02 23:33:30.730 ,0,1,0.,24.0,0.,24.0
1979-08-02 23:33:54.730 ,4,1,0.,24.0,0.,24.0
1979-08-02 23:34:18.730 ,7,1,0.,24.0,0.,24.0
1979-08-02 23:34:42.730 ,3,1,0.,24.0,0.,24.0
1979-08-02 23:35:06.730 ,0,1,0.,24.0,0.,24.0
1979-08-02 23:35:30.720 ,4,1,0.,24.0,0.,24.0
1979-08-02 23:35:54.720 ,7,1,0.,24.0,0.,24.0
1979-08-02 23:36:18.720 ,3,1,0.,24.0,0.,24.0
1979-08-02 23:36:42.720 ,0,1,0.,24.0,0.,24.0
1979-08-02 23:37:06.720 ,4,1,0.,24.0,0.,24.0
1979-08-02 23:37:30.720 ,7,1,0.,24.0,0.,24.0
1979-08-02 23:37:54.720 ,3,1,0.,24.0,0.,24.0
1979-08-02 23:38:18.720 ,0,1,0.,24.0,0.,24.0
1979-08-02 23:38:42.720 ,4,1,0.,24.0,0.,24.0
1979-08-02 23:39:06.720 ,7,1,0.,24.0,0.,24.0
1979-08-02 23:39:30.720 ,3,1,0.,24.0,0.,24.0
1979-08-02 23:39:54.720 ,0,1,0.,24.0,0.,24.0
1979-08-02 23:40:18.720 ,4,1,0.,24.0,0.,24.0
1979-08-02 23:40:42.720 ,7,1,0.,24.0,0.,24.0
1979-08-02 23:41:06.720 ,3,1,0.,24.0,0.,24.0
1979-08-02 23:41:30.720 ,0,1,0.,24.0,0.,24.0
1979-08-02 23:41:54.720 ,0,0,0.,24.0,0.,24.0
1979-08-02 23:42:18.720 ,0,0,0.,24.0,0.,24.0
1979-08-02 23:42:42.720 ,5,1,0.,24.0,0.,24.0
1979-08-02 23:43:06.720 ,5,0,0.,24.0,0.,24.0
1979-08-02 23:43:30.720 ,4,1,0.,24.0,0.,24.0
1979-08-02 23:43:54.720 ,4,0,0.,24.0,0.,24.0
1979-08-02 23:44:18.720 ,3,1,0.,24.0,0.,24.0
1979-08-02 23:44:42.720 ,3,0,0.,24.0,0.,24.0
1979-08-02 23:45:06.720 ,2,1,0.,24.0,0.,24.0
1979-08-02 23:45:30.720 ,2,0,0.,24.0,0.,24.0
1979-08-02 23:45:54.720 ,1,1,0.,24.0,0.,24.0
1979-08-02 23:46:18.720 ,1,0,0.,24.0,0.,24.0
1979-08-02 23:46:42.720 ,0,1,0.,24.0,0.,24.0
1979-08-02 23:47:06.720 ,0,0,0.,24.0,0.,24.0
1979-08-02 23:47:30.720 ,0,1,0.,24.0,0.,24.0
1979-08-02 23:47:54.720 ,0,0,0.,24.0,0.,24.0
1979-08-02 23:48:18.720 ,1,1,0.,24.0,0.,24.0
1979-08-02 23:48:42.720 ,1,0,0.,24.0,0.,24.0
1979-08-02 23:49:06.720 ,2,1,0.,24.0,0.,24.0
1979-08-02 23:49:30.720 ,2,0,0.,24.0,0.,24.0
1979-08-02 23:49:54.720 ,3,1,0.,24.0,0.,24.0
1979-08-02 23:50:18.720 ,3,0,0.,24.0,0.,24.0
1979-08-02 23:50:42.720 ,4,1,0.,24.0,0.,24.0
1979-08-02 23:51:06.720 ,4,0,0.,24.0,0.,24.0
1979-08-02 23:51:30.720 ,5,1,0.,24.0,0.,24.0
1979-08-02 23:51:54.720 ,5,0,0.,24.0,0.,24.0
1979-08-02 23:52:18.720 ,6,1,0.,24.0,0.,24.0
1979-08-02 23:52:42.720 ,6,0,0.,24.0,0.,24.0
1979-08-02 23:53:06.720 ,7,1,0.,24.0,0.,24.0
1979-08-02 23:53:30.720 ,7,0,0.,24.0,0.,24.0
1979-08-02 23:53:54.720 ,7,1,0.,24.0,0.,24.0
1979-08-02 23:54:18.720 ,7,0,0.,24.0,0.,24.0
1979-08-02 23:54:42.720 ,6,1,0.,24.0,0.,24.0
1979-08-02 23:55:06.720 ,6,0,0.,24.0,0.,24.0
1979-08-02 23:55:30.720 ,5,1,0.,24.0,0.,24.0
1979-08-02 23:55:54.720 ,5,0,0.,24.0,0.,24.0
1979-08-02 23:56:18.720 ,4,1,0.,24.0,0.,24.0
1979-08-02 23:56:42.720 ,4,0,0.,24.0,0.,24.0
1979-08-02 23:57:06.720 ,3,1,0.,24.0,0.,24.0
1979-08-02 23:57:30.720 ,3,0,0.,24.0,0.,24.0
1979-08-02 23:57:54.720 ,2,1,0.,24.0,0.,24.0
1979-08-02 23:58:18.720 ,2,0,0.,24.0,0.,24.0
1979-08-02 23:58:42.720 ,1,1,0.,24.0,0.,24.0
1979-08-02 23:59:06.720 ,1,0,0.,24.0,0.,24.0
1979-08-02 23:59:30.720 ,0,1,0.,24.0,0.,24.0
1979-08-02 23:59:54.720 ,0,0,0.,24.0,0.,24.0
1979-08-03 00:00:18.720 ,0,1,0.,24.0,0.,24.0
